Search the data

BODC Cruise Metadata Report for FRV Scotia (748S) cruise 1802S

Introduction

This report collates information from the BODC cruise inventory and oceanographic databases. It presents

Cruise Inventory Information

Long name FRV Scotia (748S) cruise 1802S
Short name 1802S
Objectives and Narrative 1. To conduct routine hydrographic sampling at stations along the standard JONSIS, Fair Isle-Munken and Nolso-Flugga survey lines
2. To conduct plankton and hydrographic sampling with ARIES in the Faroe Shetland Channel.
3. To conduct plankton and hydrographic sampling with ARIES and a Methot net in the North Atlantic and the Western shelf area.
Ship FRV Scotia
Departure Port Aberdeen, United Kingdom
Departure Date 2002-12-04
Arrival Port Aberdeen, United Kingdom
Arrival Date 2002-12-20
Principal Scientist(s) John Dunn (Fisheries Research Services Aberdeen Marine Laboratory)
Responsible Organisation AWI Helgoland
Associated Project(s)
IHB Sea Areas Visited North Sea, North East Atlantic Ocean (limit 40W)
Marsden Squares Visited 181;3/181;4/182;3/182;4/216;3/217;1/217;2/218;1/252;1
Work Area Description Northwestern North Sea, Faroe Shetland Channel, continental shelf NW of Scotland, Rockall Plateau and Iceland Basin
Work Area Bounding Polygon 55N,20W; 65N,20W; 65N,5E; 55N,5E; 55N,20W
Southern Limit 55N
Northern Limit 65N
Western Limit 20W
Eastern Limit 5E

Cruise Inventory Datasets

Physical oceanography  
CTD stations Quantity: number of stations = 73
Description: CTD stations.  
Chemical oceanography  
Nitrate Quantity: number of samples = 1304
Description: Nitrate Samples  
Phosphate Quantity: number of samples = 1304
Description: Phosphate Samples  
Silicate Quantity: number of samples = 1304
Description: Silicate Samples  
Biology and fisheries  
Zooplankton Quantity: number of hauls = 165
Description: A.R.I.E.S. discrete depth Zooplankton samples and Methot oblique Zooplankton samples  

Cruise Inventory Mooring/Buoy Operations

No information on datasets is currently available

Summary of BODC Data Holdings for the Cruise

National Oceanographic Database

Summary

# Series Instrument Description Parameters
74 CTD/STD cast Chlorophyll pigment concentrations in water bodies
Density of the water column
Electrical conductivity of the water column
Raw fluorometer output
Salinity of the water column
Temperature of the water column
Transmittance and attenuance of the water column
Vertical spatial coordinates

Note: Parameter terms are taken from the BODC Parameter Discovery Vocabulary XML (SKOS)

Full List

BODC Reference Instrument Description Date/Time Location  
621533 CTD/STD cast 2002-12-08 02:20Z 59° 16' N, 0° 0' W Click for more
621545 CTD/STD cast 2002-12-08 04:15Z 59° 17' N, 0° 21' W Click for more
621557 CTD/STD cast 2002-12-08 05:40Z 59° 17' N, 0° 40' W Click for more
621569 CTD/STD cast 2002-12-08 06:55Z 59° 17' N, 0° 59' W Click for more
621570 CTD/STD cast 2002-12-08 07:42Z 59° 17' N, 1° 10' W Click for more
621582 CTD/STD cast 2002-12-08 08:40Z 59° 17' N, 1° 19' W Click for more
621594 CTD/STD cast 2002-12-08 09:24Z 59° 16' N, 1° 30' W Click for more
621601 CTD/STD cast 2002-12-08 10:10Z 59° 17' N, 1° 40' W Click for more
621613 CTD/STD cast 2002-12-08 10:49Z 59° 16' N, 1° 48' W Click for more
621625 CTD/STD cast 2002-12-08 11:29Z 59° 16' N, 1° 55' W Click for more
621637 CTD/STD cast 2002-12-08 12:17Z 59° 16' N, 2° 5' W Click for more
621649 CTD/STD cast 2002-12-08 13:05Z 59° 16' N, 2° 14' W Click for more
621650 CTD/STD cast 2002-12-08 19:18Z 60° 9' N, 3° 43' W Click for more
621662 CTD/STD cast 2002-12-08 20:06Z 60° 13' N, 3° 51' W Click for more
621674 CTD/STD cast 2002-12-08 20:57Z 60° 16' N, 3° 58' W Click for more
621686 CTD/STD cast 2002-12-08 21:38Z 60° 18' N, 4° 4' W Click for more
621698 CTD/STD cast 2002-12-09 00:42Z 60° 20' N, 4° 8' W Click for more
621705 CTD/STD cast 2002-12-09 01:59Z 60° 25' N, 4° 18' W Click for more
621717 CTD/STD cast 2002-12-09 03:26Z 60° 29' N, 4° 25' W Click for more
621729 CTD/STD cast 2002-12-09 09:12Z 60° 34' N, 4° 45' W Click for more
621730 CTD/STD cast 2002-12-09 15:37Z 60° 37' N, 4° 53' W Click for more
621742 CTD/STD cast 2002-12-09 17:29Z 60° 43' N, 5° 4' W Click for more
621754 CTD/STD cast 2002-12-09 22:03Z 60° 47' N, 5° 15' W Click for more
621766 CTD/STD cast 2002-12-09 23:55Z 60° 51' N, 5° 28' W Click for more
621778 CTD/STD cast 2002-12-10 02:11Z 61° 1' N, 5° 57' W Click for more
621791 CTD/STD cast 2002-12-10 04:41Z 61° 12' N, 6° 21' W Click for more
621809 CTD/STD cast 2002-12-10 08:58Z 62° 0' N, 6° 12' W Click for more
621810 CTD/STD cast 2002-12-10 10:28Z 61° 54' N, 5° 45' W Click for more
621822 CTD/STD cast 2002-12-10 11:58Z 61° 49' N, 5° 20' W Click for more
621834 CTD/STD cast 2002-12-10 13:39Z 61° 42' N, 4° 51' W Click for more
621846 CTD/STD cast 2002-12-10 16:19Z 61° 34' N, 4° 15' W Click for more
621858 CTD/STD cast 2002-12-10 18:33Z 61° 28' N, 3° 42' W Click for more
621871 CTD/STD cast 2002-12-11 02:28Z 61° 21' N, 3° 8' W Click for more
621883 CTD/STD cast 2002-12-11 05:04Z 61° 13' N, 2° 40' W Click for more
621895 CTD/STD cast 2002-12-11 09:12Z 61° 11' N, 2° 24' W Click for more
621902 CTD/STD cast 2002-12-11 10:25Z 61° 9' N, 2° 18' W Click for more
621914 CTD/STD cast 2002-12-11 11:31Z 61° 8' N, 2° 10' W Click for more
621926 CTD/STD cast 2002-12-11 12:33Z 61° 7' N, 2° 0' W Click for more
621938 CTD/STD cast 2002-12-11 14:30Z 61° 4' N, 1° 52' W Click for more
621951 CTD/STD cast 2002-12-11 15:31Z 61° 1' N, 1° 35' W Click for more
621963 CTD/STD cast 2002-12-11 16:38Z 60° 58' N, 1° 18' W Click for more
621975 CTD/STD cast 2002-12-11 18:42Z 60° 56' N, 1° 0' W Click for more
621987 CTD/STD cast 2002-12-14 01:56Z 59° 37' N, 16° 7' W Click for more
621999 CTD/STD cast 2002-12-14 10:43Z 59° 19' N, 18° 3' W Click for more
622002 CTD/STD cast 2002-12-16 02:17Z 58° 45' N, 8° 0' W Click for more
622014 CTD/STD cast 2002-12-16 04:45Z 58° 31' N, 7° 32' W Click for more
622026 CTD/STD cast 2002-12-16 07:05Z 58° 17' N, 7° 4' W Click for more
622038 CTD/STD cast 2002-12-16 10:28Z 58° 43' N, 6° 25' W Click for more
622051 CTD/STD cast 2002-12-16 12:43Z 58° 56' N, 6° 52' W Click for more
622063 CTD/STD cast 2002-12-16 15:14Z 59° 10' N, 7° 21' W Click for more
622075 CTD/STD cast 2002-12-16 20:21Z 59° 39' N, 6° 7' W Click for more
622087 CTD/STD cast 2002-12-16 22:53Z 59° 26' N, 5° 39' W Click for more
622099 CTD/STD cast 2002-12-17 01:57Z 59° 12' N, 5° 10' W Click for more
622106 CTD/STD cast 2002-12-17 04:12Z 58° 58' N, 4° 43' W Click for more
622118 CTD/STD cast 2002-12-17 06:17Z 58° 45' N, 4° 15' W Click for more
622131 CTD/STD cast 2002-12-17 10:07Z 59° 21' N, 3° 26' W Click for more
622143 CTD/STD cast 2002-12-17 12:42Z 59° 34' N, 3° 55' W Click for more
622155 CTD/STD cast 2002-12-17 15:13Z 59° 48' N, 4° 27' W Click for more
622167 CTD/STD cast 2002-12-17 17:42Z 60° 1' N, 4° 50' W Click for more
622179 CTD/STD cast 2002-12-17 22:17Z 60° 24' N, 3° 27' W Click for more
622180 CTD/STD cast 2002-12-18 02:22Z 60° 50' N, 2° 30' W Click for more
622192 CTD/STD cast 2002-12-18 04:36Z 60° 38' N, 2° 5' W Click for more
622211 CTD/STD cast 2002-12-18 08:20Z 60° 12' N, 2° 57' W Click for more
622223 CTD/STD cast 2002-12-18 10:38Z 59° 58' N, 2° 29' W Click for more
622235 CTD/STD cast 2002-12-18 13:18Z 59° 45' N, 2° 0' W Click for more
622247 CTD/STD cast 2002-12-18 16:38Z 59° 45' N, 1° 16' W Click for more
622259 CTD/STD cast 2002-12-18 22:50Z 60° 29' N, 0° 30' W Click for more
622260 CTD/STD cast 2002-12-19 02:49Z 60° 30' N, 0° 15' E Click for more
622272 CTD/STD cast 2002-12-19 05:39Z 60° 30' N, 0° 59' E Click for more
622284 CTD/STD cast 2002-12-19 09:59Z 60° 28' N, 1° 43' E Click for more
622296 CTD/STD cast 2002-12-19 15:31Z 59° 44' N, 1° 45' E Click for more
622303 CTD/STD cast 2002-12-19 18:26Z 59° 45' N, 1° 1' E Click for more
622315 CTD/STD cast 2002-12-19 21:26Z 59° 45' N, 0° 15' E Click for more
622327 CTD/STD cast 2002-12-20 00:28Z 59° 45' N, 0° 29' W Click for more

Project Database

No data currently held for this cruise in the BODC Project Database

References

Track Charts

Track Chart

Reports

Cruise Report